Amsterdam, Netherlands

3:32 AM CET on December 15, 2019 (GMT +0100)
Schiphol

Weather History for EHAM - October, 2019

Change the Weather History Date:

Tuesday, October 22, 2019

  Actual Average Record
Temperature  
Mean Temperature 52 °F -  
Max Temperature 59 °F 50 °F 70 °F (2013)
Min Temperature 44 °F 41 °F 28 °F (1997)
Degree Days  
Heating Degree Days 14    
Growing Degree Days 2 (Base 50)    
Moisture  
Dew Point 51 °F    
Average Humidity 93    
Maximum Humidity 100    
Minimum Humidity 79    
Precipitation  
Precipitation 0.02 in - - ()
Sea Level Pressure  
Sea Level Pressure 30.18 in    
Wind  
Wind Speed 6 mph ()    
Max Wind Speed 11 mph    
Max Gust Speed -    
Visibility 4.8 miles    
Events Fog , Rain    
Averages and records for this station are not official NWS values.
T = Trace of Precipitation, MM = Missing Value Source: Averaged Metar Reports

Daily Weather History Graph

Daily Weather History Graph

Search for Another Location

Airport or City:

Astronomy

Oct. 22, 2019 Rise Set
Actual Time 8:17 AM CEST 6:32 PM CEST
Civil Twilight 7:42 AM CEST 7:06 PM CEST
Nautical Twilight 7:03 AM CEST 7:46 PM CEST
Astronomical Twilight 6:24 AM CEST 8:25 PM CEST
Moon 12:04 AM CEST (10/22) 4:30 PM CEST (10/22)
Length of Visible Light 11h 24m
Length of Day
10h 14m
Last Quarter, 40% of the Moon is Illuminated
Oct 22
Last Quarter
Oct 28
New
Nov 4
First Quarter
Nov 12
Full
Nov 19
Last Quarter

Hourly Weather History & Observations

Time (CEST) Temp. Windchill Dew Point Humidity Pressure Visibility Wind Dir Wind Speed Gust Speed Precip Events Conditions
12:00 AM 51 °F - 49 °F 92% 30.11 in 5 mi South 6.7 mph - -   Mist
12:25 AM 51.8 °F - 50.0 °F 94% 30.09 in 4.3 mi SSW 8.1 mph - N/A   Scattered Clouds
12:55 AM 51.8 °F - 50.0 °F 94% 30.09 in 3.7 mi South 9.2 mph - N/A   Partly Cloudy
1:00 AM 52 °F - 51 °F 95% 30.12 in 4 mi South 8.9 mph - -   Mist
1:25 AM 51.8 °F - 51.8 °F 100% 30.09 in 3.7 mi South 5.8 mph - N/A   Partly Cloudy
1:55 AM 51.8 °F - 51.8 °F 100% 30.12 in - South 6.9 mph - N/A   Scattered Clouds
2:00 AM 53 °F - 51 °F 92% 30.13 in 3 mi South 8.9 mph - -   Mist
2:25 AM 51.8 °F - 51.8 °F 100% 30.12 in 3.1 mi South 8.1 mph - N/A   Scattered Clouds
2:55 AM 53.6 °F - 51.8 °F 94% 30.12 in 2.5 mi South 8.1 mph - N/A   Mostly Cloudy
3:00 AM 53 °F - 52 °F 94% 30.13 in 2 mi South 8.9 mph - -   Mist
3:25 AM 53.6 °F - 51.8 °F 94% 30.12 in 2.5 mi South 8.1 mph - N/A   Mostly Cloudy
3:55 AM 53.6 °F - 51.8 °F 94% 30.12 in 2.5 mi South 6.9 mph - N/A   Mostly Cloudy
4:00 AM 53 °F - 52 °F 95% 30.12 in 2 mi South 6.7 mph - -   Mist
4:25 AM 53.6 °F - 51.8 °F 94% 30.12 in 2.5 mi South 8.1 mph - N/A   Mostly Cloudy
4:55 AM 53.6 °F - 51.8 °F 94% 30.12 in 3.1 mi South 8.1 mph - N/A   Mostly Cloudy
5:00 AM 53 °F - 52 °F 96% 30.13 in 3 mi South 8.9 mph - -   Mist
5:55 AM 53.6 °F - 51.8 °F 94% 30.12 in 3.1 mi SSW 6.9 mph - N/A   Mostly Cloudy
6:00 AM 53 °F - 52 °F 97% 30.13 in 3 mi SSW 6.7 mph - - Rain Rain
6:25 AM 53.6 °F - 51.8 °F 94% 30.12 in 3.7 mi South 6.9 mph - N/A   Mostly Cloudy
6:55 AM 53.6 °F - 51.8 °F 94% 30.12 in 3.7 mi SSW 8.1 mph - N/A   Mostly Cloudy
7:00 AM 54 °F - 52 °F 92% 30.14 in 3 mi SSW 6.7 mph - -   Mist
7:25 AM 53.6 °F - 51.8 °F 94% 30.12 in 3.1 mi SSW 5.8 mph - N/A   Mostly Cloudy
7:55 AM 53.6 °F - 51.8 °F 94% 30.12 in - SSW 8.1 mph - N/A   Mostly Cloudy
8:00 AM 54 °F - 53 °F 93% 30.16 in 2 mi SSW 6.7 mph - -   Mist
8:25 AM 53.6 °F - 53.6 °F 100% 30.15 in 2.5 mi SSW 8.1 mph - N/A   Mostly Cloudy
8:55 AM 53.6 °F - 53.6 °F 100% 30.15 in 2.5 mi SSW 6.9 mph - N/A   Mostly Cloudy
9:00 AM 54 °F - 53 °F 94% 30.18 in 3 mi SSW 6.7 mph - -   Mist
9:25 AM 53.6 °F - 53.6 °F 100% 30.15 in - SSW 5.8 mph - N/A Rain Rain
9:55 AM 55.4 °F - 53.6 °F 94% 30.18 in 2.8 mi South 6.9 mph - N/A   Light Drizzle
10:00 AM 55 °F - 53 °F 92% 30.19 in 3 mi South 6.7 mph - -   Mist
10:25 AM 55.4 °F - 53.6 °F 94% 30.18 in 3.1 mi South 6.9 mph - N/A   Light Drizzle
10:55 AM 57.2 °F - 53.6 °F 88% 30.21 in 3.7 mi SW 8.1 mph - N/A   Mostly Cloudy
11:00 AM 56 °F - 54 °F 91% 30.22 in 4 mi SW 6.7 mph - - Rain Rain
11:25 AM 57.2 °F - 55.4 °F 94% 30.21 in 5.6 mi SSW 5.8 mph - N/A   Mostly Cloudy
11:55 AM 57.2 °F - 53.6 °F 88% 30.21 in 6.2 mi West 3.5 mph - N/A   Mostly Cloudy
12:00 PM 58 °F - 53 °F 79% 30.22 in 8 mi West 2.2 mph - -   Partly Cloudy
12:25 PM 59.0 °F - 53.6 °F 82% 30.21 in 4.3 mi Variable 2.3 mph - N/A Rain Light Rain Showers
12:55 PM 57.2 °F - 53.6 °F 88% 30.21 in 4.3 mi WNW 6.9 mph - N/A Rain Light Rain Showers
1:00 PM 56 °F - 54 °F 92% 30.22 in 4 mi West 6.7 mph - - Rain Heavy Rain
1:25 PM 57.2 °F - 53.6 °F 88% 30.21 in 3.7 mi West 5.8 mph - N/A   Mostly Cloudy
1:55 PM 55.4 °F - 53.6 °F 94% 30.21 in 5.0 mi WNW 6.9 mph - N/A   Mostly Cloudy
2:00 PM 56 °F - 54 °F 90% 30.23 in 4 mi NW 4.5 mph - - Rain Rain
2:25 PM 57.2 °F - 53.6 °F 88% 30.21 in 6.2 mi NW 8.1 mph - N/A   Mostly Cloudy
2:55 PM 57.2 °F - 53.6 °F 88% 30.21 in 6.2 mi NNW 9.2 mph - N/A   Mostly Cloudy
3:00 PM 56 °F - 53 °F 85% 30.23 in 22 mi NNW 8.9 mph - -   Partly Cloudy
3:25 PM 57.2 °F - 51.8 °F 82% 30.21 in 6.2 mi NNW 8.1 mph - N/A   Mostly Cloudy
3:55 PM 55.4 °F - 51.8 °F 88% 30.21 in 6.2 mi NNW 9.2 mph - N/A   Mostly Cloudy
4:00 PM 56 °F - 51 °F 79% 30.21 in 19 mi NW 11.2 mph - -   Partly Cloudy
4:25 PM 55.4 °F - 51.8 °F 88% 30.21 in 6.2 mi NW 10.4 mph - N/A   Mostly Cloudy
4:55 PM 55.4 °F - 51.8 °F 88% 30.21 in 6.2 mi NW 5.8 mph - N/A Rain Light Rain Showers
5:25 PM 55.4 °F - 50.0 °F 82% 30.21 in 6.2 mi NW 4.6 mph - N/A   Scattered Clouds
5:55 PM 53.6 °F - 50.0 °F 88% 30.21 in 6.2 mi NW 3.5 mph - N/A   Scattered Clouds
6:00 PM 53 °F - 49 °F 84% 30.22 in 28 mi WNW 4.5 mph - -   Partly Cloudy
6:25 PM 53.6 °F - 50.0 °F 88% 30.21 in 6.2 mi West 2.3 mph - N/A   Partly Cloudy
6:55 PM 51.8 °F - 48.2 °F 88% 30.21 in 6.2 mi Variable 2.3 mph - N/A   Partly Cloudy
7:25 PM 50.0 °F - 48.2 °F 94% 30.21 in 6.2 mi West 2.3 mph - N/A   Partly Cloudy
7:55 PM 48.2 °F - 48.2 °F 100% 30.21 in 6.2 mi WNW 2.3 mph - N/A   Scattered Clouds
8:25 PM 48.2 °F - 46.4 °F 93% 30.21 in 6.2 mi ESE 3.5 mph - N/A   Partly Cloudy
8:55 PM 46.4 °F 45.2 °F 46.4 °F 100% 30.21 in 6.2 mi SE 3.5 mph - N/A   Partly Cloudy
9:00 PM 46 °F - 46 °F 99% 30.23 in 16 mi ESE 2.2 mph - -   Partly Cloudy
9:25 PM 46.4 °F - 46.4 °F 100% 30.21 in 6.2 mi SE 2.3 mph - N/A Fog Shallow Fog
9:55 PM 46.4 °F 45.2 °F 44.6 °F 93% 30.21 in 6.2 mi SE 3.5 mph - N/A Fog Shallow Fog
10:00 PM 47 °F - 47 °F 100% 30.21 in 9 mi SE 2.2 mph - -   Partly Cloudy
10:25 PM 46.4 °F - 46.4 °F 100% 30.21 in 6.2 mi SE 2.3 mph - N/A Fog Shallow Fog
10:55 PM 46.4 °F - 46.4 °F 100% 30.21 in 6.2 mi Variable 2.3 mph - N/A Fog Shallow Fog
11:00 PM 46 °F - 46 °F 100% 30.22 in 0 mi SSE 2.2 mph - - Fog Fog
11:25 PM 44.6 °F - 44.6 °F 100% 30.21 in 6.2 mi SE 2.3 mph - N/A   Partly Cloudy
11:55 PM 44.6 °F - 42.8 °F 93% 30.21 in 5.0 mi SSE 1.2 mph - N/A   Unknown